[[{"header":{"parameterUnit":"m.s-1","parameterCategory":2,"la1":30.2992,"la2":30.254,"lo1":-89.0895,"lo2":-89.0443,"dy":0.0025,"dx":0.0025,"nx":19,"ny":19,"refTime":"2026-05-06T21:00:00:Z","depth":"0","parameterNumber":2,"parameterNumberName":"U-component_of_CURRENTS"},"data":[0,0,0,-0.2656,-0.2654,-0.2567,-0.2567,-0.2416,-0.2415,0,0,0,0,0,0,0,0,0,0,0,-0.2677,-0.2676,-0.2656,-0.2654,-0.2567,-0.2567,-0.2416,-0.2414,0,0,0,0,0,0,0,0,0,0,0,-0.2677,-0.2676,-0.2676,-0.2654,-0.2568,-0.2567,-0.2416,-0.2487,0,0,0,0,0,0,0,0,0,0,-0.2574,-0.2621,-0.2676,-0.2676,-0.2654,-0.2568,-0.2567,-0.249,-0.2482,-0.245,0,-0.2443,0,-0.2437,-0.2405,-0.2405,0,0,0,-0.2634,-0.2628,-0.2595,-0.2676,-0.2653,-0.2568,-0.2601,-0.2486,-0.2477,-0.2439,-0.2441,-0.2436,-0.2434,-0.2404,-0.2404,-0.2355,-0.2355,0,0,-0.2639,-0.2665,-0.2602,-0.259,-0.2637,-0.2604,-0.2598,-0.2481,-0.2479,-0.244,-0.2432,-0.2432,-0.2404,-0.2403,-0.2354,-0.2355,0,0,0,-0.2666,-0.2668,-0.2639,-0.2596,-0.2589,-0.2602,-0.2596,-0.2484,-0.2472,-0.2431,-0.243,-0.2403,-0.2401,-0.2354,-0.2354,-0.2439,0,0,0,-0.2668,-0.2686,-0.2642,-0.2657,-0.2592,-0.2546,-0.2601,-0.2479,-0.2467,-0.2431,-0.2403,-0.24,-0.2353,-0.2354,-0.2436,-0.2473,0,0,0,-0.2679,-0.2687,-0.2677,-0.2658,-0.263,-0.2547,-0.2528,-0.2476,-0.2467,-0.2405,-0.2399,-0.2353,-0.2354,-0.2433,-0.2468,-0.2519,0,0,0,-0.2707,-0.2674,-0.2678,-0.2658,-0.2631,-0.258,-0.2529,-0.2503,-0.2461,-0.2402,-0.2353,-0.2354,-0.2432,-0.2464,-0.2515,-0.2586,-0.2608,0,0,-0.2673,-0.2671,-0.2662,-0.2663,-0.2635,-0.259,-0.2571,-0.2511,-0.2464,-0.2384,-0.2382,-0.2437,-0.2467,-0.2518,-0.2653,-0.2673,0,0,0,-0.2657,-0.2657,-0.2644,-0.2646,-0.2609,-0.26,-0.2539,-0.2528,-0.2494,-0.2447,-0.2436,-0.2453,-0.2482,-0.2518,-0.2534,-0.242,-0.236,-0.2359,-0.2359,-0.2643,-0.2652,-0.2655,-0.2653,-0.2644,-0.2617,-0.2609,-0.2585,-0.2518,-0.2541,-0.2522,-0.2618,-0.2657,-0.267,-0.2552,-0.2521,-0.2521,-0.2522,-0.2522,-0.264,-0.2667,-0.2707,-0.271,-0.272,-0.2716,-0.2689,-0.2667,-0.2655,-0.2597,-0.2622,-0.2605,-0.2693,-0.256,-0.2527,-0.2526,-0.2526,-0.2525,-0.2525,-0.2652,-0.2673,-0.2687,-0.2746,-0.2805,-0.2795,-0.2864,-0.2804,-0.2745,-0.2764,-0.2791,-0.279,-0.2673,-0.2779,-0.278,-0.278,-0.278,-0.2781,-0.2781,-0.267,-0.2689,-0.2729,-0.2788,-0.2842,-0.2918,-0.2946,-0.2956,-0.2939,-0.2893,-0.2893,-0.27,-0.2696,-0.2685,-0.2787,-0.2786,-0.2785,-0.2785,-0.2784,-0.2689,-0.2707,-0.2764,-0.2809,-0.2941,-0.2974,-0.3062,-0.312,-0.3132,-0.3133,-0.2898,-0.2957,-0.2935,-0.2922,-0.2916,-0.3072,-0.3072,-0.3072,-0.3072,-0.2717,-0.2725,-0.2826,-0.29,-0.3005,-0.3016,-0.3048,-0.3121,-0.3088,-0.3032,-0.295,-0.2888,-0.2881,-0.285,-0.2838,-0.2827,-0.2956,-0.2956,-0.2955,-0.2746,-0.278,-0.2847,-0.2922,-0.3031,-0.3024,-0.2917,-0.2827,-0.2895,-0.2933,-0.2778,-0.2783,-0.2668,-0.2667,-0.2594,-0.2587,-0.256,0,0]},{"header":{"parameterUnit":"m.s-1","parameterCategory":2,"la1":30.2992,"la2":30.254,"lo1":-89.0895,"lo2":-89.0443,"dy":0.0025,"dx":0.0025,"nx":19,"ny":19,"refTime":"2026-05-06T21:00:00:Z","depth":"0","parameterNumber":3,"parameterNumberName":"V-component_of_CURRENTS"},"data":[0,0,0,-0.0975,-0.0973,-0.0851,-0.085,-0.0669,-0.0667,0,0,0,0,0,0,0,0,0,0,0,-0.1023,-0.1023,-0.0976,-0.0973,-0.0851,-0.085,-0.0669,-0.0667,0,0,0,0,0,0,0,0,0,0,0,-0.1024,-0.1023,-0.1022,-0.0972,-0.0851,-0.085,-0.0669,-0.0766,0,0,0,0,0,0,0,0,0,0,-0.0886,-0.0954,-0.1023,-0.1022,-0.0972,-0.0851,-0.085,-0.077,-0.076,-0.072,0,-0.071,0,-0.0684,-0.0655,-0.0655,0,0,0,-0.0963,-0.0964,-0.0914,-0.1022,-0.0971,-0.0852,-0.0903,-0.0764,-0.0752,-0.0705,-0.0707,-0.07,-0.0681,-0.0654,-0.0653,-0.0493,-0.0493,0,0,-0.097,-0.1012,-0.0923,-0.0907,-0.0949,-0.0907,-0.09,-0.0757,-0.0758,-0.0706,-0.0695,-0.0678,-0.0653,-0.0652,-0.0494,-0.0493,0,0,0,-0.0996,-0.1017,-0.0971,-0.0915,-0.0894,-0.0904,-0.0895,-0.0765,-0.0745,-0.0693,-0.0676,-0.0652,-0.065,-0.0494,-0.0493,-0.0508,0,0,0,-0.0999,-0.1031,-0.0975,-0.0999,-0.0898,-0.0835,-0.0906,-0.0755,-0.0738,-0.0677,-0.0652,-0.0648,-0.0495,-0.0494,-0.0509,-0.0536,0,0,0,-0.1027,-0.1035,-0.102,-0.1002,-0.095,-0.0837,-0.081,-0.0751,-0.0727,-0.0655,-0.0648,-0.0495,-0.0494,-0.0509,-0.0536,-0.0507,0,0,0,-0.1073,-0.105,-0.1022,-0.0992,-0.0952,-0.0855,-0.081,-0.0743,-0.0686,-0.0651,-0.0495,-0.0494,-0.051,-0.0536,-0.0508,-0.0571,-0.0574,0,0,-0.1063,-0.105,-0.1029,-0.1,-0.0915,-0.0871,-0.0778,-0.0695,-0.0653,-0.0539,-0.0535,-0.0509,-0.0536,-0.0507,-0.0513,-0.0518,0,0,0,-0.1037,-0.1023,-0.0991,-0.0942,-0.0867,-0.0795,-0.0712,-0.0665,-0.0572,-0.0615,-0.0484,-0.0501,-0.0482,-0.052,-0.0523,-0.0263,-0.0489,-0.0489,-0.0489,-0.1064,-0.1017,-0.0976,-0.0903,-0.0848,-0.0734,-0.0672,-0.0591,-0.0547,-0.0513,-0.0493,-0.046,-0.0499,-0.0503,-0.0233,-0.046,-0.046,-0.046,-0.046,-0.1055,-0.1041,-0.0983,-0.0932,-0.0846,-0.0773,-0.063,-0.0585,-0.0479,-0.047,-0.045,-0.0511,-0.0508,-0.0218,-0.046,-0.046,-0.046,-0.046,-0.046,-0.1083,-0.1075,-0.1045,-0.0994,-0.0924,-0.0816,-0.075,-0.0628,-0.0517,-0.0484,-0.0502,-0.0502,-0.0264,-0.0466,-0.0466,-0.0466,-0.0466,-0.0466,-0.0466,-0.1145,-0.1108,-0.1124,-0.1058,-0.1048,-0.0984,-0.0819,-0.0742,-0.0607,-0.0531,-0.053,-0.0215,-0.0461,-0.048,-0.0465,-0.0466,-0.0466,-0.0466,-0.0466,-0.1205,-0.1204,-0.1236,-0.124,-0.1204,-0.1196,-0.1029,-0.0874,-0.0739,-0.0686,-0.0248,-0.0536,-0.0537,-0.0534,-0.0553,-0.0559,-0.0559,-0.0559,-0.0559,-0.1281,-0.1268,-0.1372,-0.1409,-0.1398,-0.1306,-0.1285,-0.1069,-0.0581,-0.0295,-0.0133,-0.0103,-0.0112,-0.0082,-0.009,-0.0098,0.0013,0.0014,0.0016,-0.1355,-0.1376,-0.1489,-0.151,-0.1505,-0.1447,-0.1456,-0.1188,-0.0368,0.0073,0.0254,0.023,0.0309,0.0275,0.0343,0.0312,0.0305,0,0]}],[{"header":{"parameterUnit":"m.s-1","parameterCategory":2,"la1":30.2992,"la2":30.254,"lo1":-89.0895,"lo2":-89.0443,"dy":0.0025,"dx":0.0025,"nx":19,"ny":19,"refTime":"2026-05-06T21:00:00:Z","depth":"2","parameterNumber":2,"parameterNumberName":"U-component_of_CURRENTS"},"data":[0,0,0,-0.1495,-0.1506,-0.1712,-0.171,-0.1547,-0.1547,0,0,0,0,0,0,0,0,0,0,0,-0.1233,-0.1235,-0.1493,-0.1507,-0.1712,-0.171,-0.1547,-0.1547,0,0,0,0,0,0,0,0,0,0,0,-0.1233,-0.1235,-0.1237,-0.1509,-0.1712,-0.171,-0.1547,-0.1446,0,0,0,0,0,0,0,0,0,0,-0.1278,-0.1226,-0.1234,-0.1237,-0.1512,-0.1713,-0.1709,-0.1444,-0.1452,-0.1401,0,-0.1456,0,-0.1674,-0.1546,-0.1546,0,0,0,-0.1291,-0.1219,-0.1302,-0.1238,-0.1517,-0.1713,-0.1558,-0.145,-0.146,-0.1411,-0.1458,-0.1461,-0.1672,-0.1546,-0.1546,-0.1548,-0.1548,0,0,-0.128,-0.1232,-0.1296,-0.1309,-0.1599,-0.1554,-0.1568,-0.1458,-0.1457,-0.1458,-0.1463,-0.1669,-0.1546,-0.1546,-0.1548,-0.1548,0,0,0,-0.1393,-0.1223,-0.1309,-0.1305,-0.1478,-0.1565,-0.158,-0.1455,-0.1494,-0.1464,-0.1667,-0.1546,-0.1546,-0.1548,-0.1548,-0.165,0,0,0,-0.1375,-0.1309,-0.1304,-0.1272,-0.1484,-0.156,-0.1579,-0.1491,-0.1498,-0.1668,-0.1546,-0.1546,-0.1548,-0.1548,-0.1647,-0.1672,0,0,0,-0.1219,-0.1298,-0.1331,-0.127,-0.1485,-0.1568,-0.159,-0.1495,-0.1632,-0.1546,-0.1546,-0.1548,-0.1548,-0.1645,-0.1668,-0.1683,0,0,0,-0.1138,-0.124,-0.1327,-0.1428,-0.1485,-0.1591,-0.1593,-0.162,-0.1545,-0.1546,-0.1548,-0.1548,-0.1644,-0.1665,-0.1681,-0.1832,-0.1855,0,0,-0.1231,-0.1248,-0.1288,-0.1381,-0.1537,-0.1546,-0.1624,-0.1545,-0.1527,-0.1516,-0.1518,-0.1648,-0.1667,-0.1683,-0.1844,-0.1868,0,0,0,-0.129,-0.1319,-0.1373,-0.1471,-0.1561,-0.1636,-0.163,-0.1633,-0.1614,-0.1548,-0.1624,-0.1631,-0.1639,-0.1724,-0.1742,-0.1549,-0.1549,-0.1549,-0.1549,-0.1331,-0.1345,-0.143,-0.1485,-0.1536,-0.1655,-0.1656,-0.1649,-0.1638,-0.1664,-0.1699,-0.1754,-0.1847,-0.1862,-0.1688,-0.1688,-0.1689,-0.1689,-0.1689,-0.1415,-0.1437,-0.144,-0.156,-0.162,-0.1668,-0.1709,-0.1728,-0.1779,-0.1763,-0.1766,-0.1807,-0.1889,-0.1697,-0.1696,-0.1694,-0.1694,-0.1693,-0.1693,-0.1397,-0.1427,-0.1494,-0.1608,-0.167,-0.1744,-0.1761,-0.1792,-0.184,-0.1873,-0.1947,-0.1947,-0.1811,-0.1892,-0.1892,-0.1892,-0.1892,-0.1892,-0.1893,-0.1379,-0.1438,-0.1554,-0.1675,-0.1734,-0.1754,-0.1815,-0.1846,-0.1979,-0.2047,-0.2048,-0.1821,-0.1814,-0.1819,-0.1896,-0.1895,-0.1895,-0.1894,-0.1894,-0.1409,-0.1426,-0.1594,-0.1691,-0.1787,-0.1817,-0.184,-0.2055,-0.2114,-0.2221,-0.213,-0.2123,-0.2094,-0.208,-0.209,-0.2231,-0.2231,-0.2231,-0.2231,-0.1377,-0.1423,-0.155,-0.1685,-0.1786,-0.182,-0.1967,-0.1973,-0.2114,-0.2081,-0.2085,-0.2068,-0.2062,-0.2024,-0.2011,-0.2016,-0.2137,-0.2136,-0.2135,-0.1394,-0.145,-0.1501,-0.1662,-0.1797,-0.1867,-0.1991,-0.1905,-0.1937,-0.2108,-0.1832,-0.227,-0.2263,-0.2246,-0.2197,-0.2173,-0.2185,0,0]},{"header":{"parameterUnit":"m.s-1","parameterCategory":2,"la1":30.2992,"la2":30.254,"lo1":-89.0895,"lo2":-89.0443,"dy":0.0025,"dx":0.0025,"nx":19,"ny":19,"refTime":"2026-05-06T21:00:00:Z","depth":"2","parameterNumber":3,"parameterNumberName":"V-component_of_CURRENTS"},"data":[0,0,0,-0.0448,-0.0453,-0.0491,-0.0489,-0.0332,-0.0332,0,0,0,0,0,0,0,0,0,0,0,-0.0336,-0.0337,-0.0447,-0.0453,-0.0491,-0.0489,-0.0332,-0.0332,0,0,0,0,0,0,0,0,0,0,0,-0.0335,-0.0336,-0.0338,-0.0454,-0.0491,-0.0489,-0.0333,-0.0321,0,0,0,0,0,0,0,0,0,0,-0.0295,-0.0334,-0.0336,-0.0338,-0.0456,-0.0492,-0.0489,-0.0321,-0.0322,-0.0301,0,-0.034,0,-0.0438,-0.033,-0.033,0,0,0,-0.0312,-0.0334,-0.0329,-0.0338,-0.0458,-0.0492,-0.0434,-0.0322,-0.0323,-0.0302,-0.0339,-0.0338,-0.0436,-0.033,-0.033,-0.0293,-0.0292,0,0,-0.031,-0.0344,-0.033,-0.0331,-0.051,-0.0434,-0.0437,-0.0323,-0.0348,-0.0339,-0.0337,-0.0433,-0.0329,-0.0329,-0.0293,-0.0292,0,0,0,-0.0399,-0.0343,-0.034,-0.0333,-0.0417,-0.0439,-0.0442,-0.0349,-0.0346,-0.0337,-0.0431,-0.0329,-0.0329,-0.0293,-0.0293,-0.0328,0,0,0,-0.0391,-0.0406,-0.0341,-0.0361,-0.0422,-0.0439,-0.0471,-0.0348,-0.0345,-0.0432,-0.0329,-0.0329,-0.0293,-0.0293,-0.0327,-0.0352,0,0,0,-0.0326,-0.0403,-0.0413,-0.0363,-0.0454,-0.0443,-0.0427,-0.0347,-0.041,-0.033,-0.0329,-0.0293,-0.0293,-0.0327,-0.035,-0.0315,0,0,0,-0.0342,-0.0405,-0.0414,-0.0473,-0.0455,-0.0455,-0.0429,-0.0414,-0.0348,-0.0329,-0.0293,-0.0293,-0.0327,-0.035,-0.0315,-0.0291,-0.029,0,0,-0.0421,-0.0416,-0.0429,-0.0442,-0.0475,-0.0437,-0.0434,-0.0352,-0.033,-0.0292,-0.0292,-0.0328,-0.035,-0.0315,-0.0269,-0.0268,0,0,0,-0.045,-0.0463,-0.0467,-0.0493,-0.0485,-0.0461,-0.0418,-0.0393,-0.0332,-0.0328,-0.031,-0.0323,-0.0299,-0.0284,-0.0283,-0.0291,-0.0291,-0.0291,-0.0291,-0.0551,-0.0505,-0.0538,-0.0491,-0.0486,-0.0463,-0.041,-0.0365,-0.0346,-0.0331,-0.0338,-0.0319,-0.0304,-0.0303,-0.0317,-0.0317,-0.0317,-0.0317,-0.0317,-0.0623,-0.063,-0.0572,-0.0604,-0.055,-0.0533,-0.044,-0.0407,-0.0346,-0.0346,-0.0321,-0.0306,-0.0305,-0.032,-0.0319,-0.0319,-0.0318,-0.0318,-0.0318,-0.0679,-0.0688,-0.0691,-0.0697,-0.0671,-0.0607,-0.0558,-0.0478,-0.0393,-0.0364,-0.0312,-0.0311,-0.0337,-0.0345,-0.0345,-0.0345,-0.0345,-0.0345,-0.0345,-0.0754,-0.0749,-0.081,-0.0795,-0.0801,-0.0761,-0.0629,-0.0554,-0.042,-0.0347,-0.0345,-0.0328,-0.0327,-0.0336,-0.0344,-0.0345,-0.0345,-0.0345,-0.0345,-0.0853,-0.0847,-0.094,-0.0974,-0.0953,-0.0921,-0.077,-0.0592,-0.0472,-0.0399,-0.0309,-0.031,-0.0289,-0.0288,-0.0295,-0.0292,-0.0292,-0.0292,-0.0292,-0.0918,-0.092,-0.1052,-0.1116,-0.1104,-0.1005,-0.092,-0.0678,-0.0432,-0.028,-0.0281,-0.0283,-0.0285,-0.0263,-0.0263,-0.027,-0.026,-0.026,-0.026,-0.0987,-0.1025,-0.1145,-0.1201,-0.1185,-0.1101,-0.1035,-0.074,-0.0318,-0.026,-0.0292,-0.0287,-0.0292,-0.0294,-0.0261,-0.0262,-0.0272,0,0]}],[{"header":{"parameterUnit":"m.s-1","parameterCategory":2,"la1":30.2992,"la2":30.254,"lo1":-89.0895,"lo2":-89.0443,"dy":0.0025,"dx":0.0025,"nx":19,"ny":19,"refTime":"2026-05-06T21:00:00:Z","depth":"4","parameterNumber":2,"parameterNumberName":"U-component_of_CURRENTS"},"data":[0,0,0,-0.077,-0.0777,-0.1162,-0.1164,-0.1524,-0.1526,0,0,0,0,0,0,0,0,0,0,0,-0.0643,-0.0645,-0.0769,-0.0778,-0.1162,-0.1164,-0.1523,-0.1526,0,0,0,0,0,0,0,0,0,0,0,-0.0642,-0.0644,-0.0647,-0.0779,-0.1161,-0.1164,-0.1523,-0.1273,0,0,0,0,0,0,0,0,0,0,-0.0919,-0.0853,-0.0644,-0.0647,-0.0781,-0.1161,-0.1164,-0.1263,-0.1289,-0.1302,0,-0.1356,0,-0.1431,-0.1544,-0.1545,0,0,0,-0.081,-0.0832,-0.0885,-0.0647,-0.0784,-0.116,-0.0998,-0.1279,-0.1307,-0.1335,-0.1362,-0.1377,-0.1437,-0.1546,-0.1547,-0.1825,-0.1826,0,0,-0.0789,-0.0765,-0.0865,-0.0902,-0.0876,-0.0985,-0.1009,-0.1298,-0.135,-0.1363,-0.1386,-0.1443,-0.1548,-0.155,-0.1824,-0.1825,0,0,0,-0.0706,-0.075,-0.0802,-0.0886,-0.0957,-0.0996,-0.1023,-0.1339,-0.1342,-0.139,-0.1447,-0.1549,-0.1553,-0.1823,-0.1824,-0.176,0,0,0,-0.0695,-0.0699,-0.0791,-0.0789,-0.0952,-0.1182,-0.1058,-0.1323,-0.1358,-0.1445,-0.1549,-0.1555,-0.1822,-0.1824,-0.1759,-0.1737,0,0,0,-0.0626,-0.0694,-0.0723,-0.0785,-0.0931,-0.1179,-0.1205,-0.1334,-0.139,-0.1545,-0.1556,-0.1821,-0.1823,-0.1758,-0.1737,-0.1649,0,0,0,-0.0607,-0.0662,-0.0724,-0.0806,-0.0927,-0.1097,-0.1204,-0.1425,-0.1566,-0.1551,-0.1822,-0.1824,-0.1758,-0.1737,-0.1651,-0.1435,0,0,0,-0.0644,-0.0667,-0.0703,-0.0765,-0.0855,-0.1047,-0.1237,-0.1498,-0.1597,-0.172,-0.1729,-0.1759,-0.1737,-0.165,-0.1583,0,0,0,0,-0.0691,-0.0731,-0.0764,-0.0852,-0.0962,-0.1154,-0.1403,-0.1509,-0.1715,-0.1685,-0.1827,-0.1817,-0.1761,-0.1646,-0.1836,-0.1836,-0.1835,-0.1835,-0.1835,-0.0748,-0.0765,-0.0809,-0.0874,-0.101,-0.1282,-0.144,-0.1644,-0.1716,-0.1813,-0.1813,-0.1777,-0.1661,-0.1869,-0.1869,-0.1869,-0.1868,-0.1868,-0.1868,-0.0748,-0.0725,-0.0828,-0.0904,-0.1064,-0.1301,-0.1534,-0.1657,-0.1751,-0.1829,-0.1776,-0.1652,-0.1864,-0.1864,-0.1865,-0.1866,-0.1866,-0.1866,-0.1867,-0.0702,-0.0671,-0.0773,-0.0866,-0.1103,-0.1358,-0.1432,-0.1638,-0.1722,-0.1705,-0.1536,-0.1726,-0.1669,-0.1649,-0.1649,-0.1648,-0.1648,-0.1648,-0.1647,-0.0562,-0.0624,-0.0682,-0.0846,-0.093,-0.1132,-0.1376,-0.136,-0.1489,-0.1458,-0.1667,-0.1702,-0.1709,-0.1659,-0.164,-0.1642,-0.1642,-0.1643,-0.1644,-0.0388,-0.0491,-0.0512,-0.0565,-0.0695,-0.0806,-0.0994,-0.1081,-0.1013,-0.0997,-0.1307,-0.1326,-0.1314,-0.133,-0.1265,-0.1129,-0.1126,-0.1123,0,-0.0263,-0.0316,-0.0327,-0.031,-0.0325,-0.056,-0.0468,-0.0571,-0.0817,-0.0872,-0.0949,-0.1297,-0.1313,-0.1297,-0.1308,-0.1228,0,0,0,-0.0115,-0.0164,-0.0106,-0.0175,-0.0173,-0.033,-0.0488,-0.0525,-0.0832,-0.0734,-0.1049,-0.1068,-0.12,-0.162,-0.1645,-0.1654,-0.1573,0,0]},{"header":{"parameterUnit":"m.s-1","parameterCategory":2,"la1":30.2992,"la2":30.254,"lo1":-89.0895,"lo2":-89.0443,"dy":0.0025,"dx":0.0025,"nx":19,"ny":19,"refTime":"2026-05-06T21:00:00:Z","depth":"4","parameterNumber":3,"parameterNumberName":"V-component_of_CURRENTS"},"data":[0,0,0,-0.0084,-0.0082,0.0023,0.0024,0.0126,0.0127,0,0,0,0,0,0,0,0,0,0,0,-0.0119,-0.0118,-0.0084,-0.0082,0.0023,0.0024,0.0126,0.0127,0,0,0,0,0,0,0,0,0,0,0,-0.0119,-0.0118,-0.0118,-0.0081,0.0023,0.0024,0.0126,0.0057,0,0,0,0,0,0,0,0,0,0,-0.0039,-0.0051,-0.0118,-0.0118,-0.0081,0.0023,0.0024,0.0055,0.0062,0.0066,0,0.0078,0,0.0098,0.0132,0.0132,0,0,0,-0.0069,-0.0056,-0.0052,-0.0118,-0.008,0.0023,-0.0021,0.0059,0.0067,0.0075,0.0079,0.0083,0.01,0.0132,0.0133,0.0185,0.0185,0,0,-0.0075,-0.0075,-0.0057,-0.0047,-0.0059,-0.0024,-0.0018,0.0064,0.0083,0.008,0.0086,0.0102,0.0133,0.0133,0.0185,0.0185,0,0,0,-0.01,-0.0079,-0.0074,-0.0051,-0.0033,-0.0021,-0.0014,0.008,0.0074,0.0087,0.0103,0.0133,0.0134,0.0185,0.0185,0.0138,0,0,0,-0.0103,-0.0095,-0.0077,-0.0072,-0.0035,0.0034,0.0,0.0069,0.0079,0.0102,0.0133,0.0135,0.0185,0.0185,0.0139,0.0084,0,0,0,-0.0122,-0.0096,-0.0091,-0.0073,-0.0036,0.0033,0.0035,0.0072,0.0088,0.0132,0.0135,0.0185,0.0185,0.014,0.0087,0.0048,0,0,0,-0.0116,-0.0137,-0.0091,-0.0128,-0.0037,-0.0087,0.0035,0.0067,0.0098,0.0133,0.0185,0.0185,0.0141,0.0089,0.005,0.0014,0,0,0,-0.0155,-0.0141,-0.0178,-0.0136,-0.0206,-0.01,-0.0152,-0.0016,0.0103,0.0158,0.0159,0.0139,0.0088,0.0048,0.0017,0,0,0,0,-0.0203,-0.0224,-0.0242,-0.0262,-0.0273,-0.0255,-0.0152,-0.0066,0.0097,0.0122,0.0153,0.0121,0.0098,0.0085,0.0185,0.0185,0.0185,0.0185,0.0185,-0.0215,-0.0267,-0.0335,-0.0387,-0.0414,-0.035,-0.0301,-0.0155,-0.0028,0.0081,0.0095,0.0044,0.0032,0.0128,0.0128,0.0127,0.0127,0.0127,0.0127,-0.0292,-0.0336,-0.0406,-0.0483,-0.0492,-0.0507,-0.039,-0.0246,-0.0093,0.0045,0.0027,0.0052,0.0123,0.0124,0.0124,0.0125,0.0125,0.0125,0.0126,-0.028,-0.0315,-0.0371,-0.05,-0.0551,-0.0532,-0.051,-0.0342,-0.0136,-0.0116,-0.0079,-0.0002,-0.0013,-0.0072,-0.0072,-0.0072,-0.0073,-0.0073,-0.0073,-0.0222,-0.0301,-0.0397,-0.0524,-0.0574,-0.0591,-0.052,-0.0454,-0.0283,-0.0165,-0.0095,-0.0024,-0.0017,-0.0024,-0.008,-0.0078,-0.0078,-0.0077,-0.0077,-0.0226,-0.0264,-0.0402,-0.0481,-0.0633,-0.0657,-0.0626,-0.0534,-0.0472,-0.0395,-0.0207,-0.0199,-0.0196,-0.0186,-0.0198,-0.0308,-0.0309,-0.0309,0,-0.0212,-0.0254,-0.0436,-0.0569,-0.0669,-0.0694,-0.0639,-0.0601,-0.0454,-0.0401,-0.0443,-0.0231,-0.0223,-0.0221,-0.0213,-0.0229,0,0,0,-0.0241,-0.0279,-0.0412,-0.0569,-0.0684,-0.0637,-0.0622,-0.058,-0.0456,-0.0482,-0.0328,-0.0323,-0.0302,-0.0098,-0.0075,-0.0067,-0.0078,0,0]}]]